Time,TemperatureF,DewpointF,PressureIn,WindDirection,WindDirectionDegrees,WindSpeedMPH,WindSpeedGustMPH,Humidity,HourlyPrecipIn,Conditions,Clouds,dailyrainin,SoftwareType,DateUTC
2013-05-10 00:02:00,51.3,50.9,30.14,North,-999,-999.0,-999.0,99,0.00,,,0.00,meteohub,2013-05-10 07:02:00,
2013-05-10 00:07:00,50.9,50.5,30.14,North,-999,-999.0,-999.0,99,0.00,,,0.00,meteohub,2013-05-10 07:07:00,
2013-05-10 00:12:00,50.9,50.5,30.14,North,-999,-999.0,-999.0,99,0.00,,,0.00,meteohub,2013-05-10 07:12:00,
2013-05-10 00:17:00,50.7,50.4,30.14,North,-999,-999.0,-999.0,99,0.00,,,0.00,meteohub,2013-05-10 07:17:00,
2013-05-10 00:22:00,50.7,50.4,30.14,North,-999,-999.0,-999.0,99,0.00,,,0.00,meteohub,2013-05-10 07:22:00,
2013-05-10 00:27:00,50.7,50.4,30.14,North,-999,-999.0,-999.0,99,0.00,,,0.00,meteohub,2013-05-10 07:27:00,
2013-05-10 00:32:00,50.7,50.4,30.14,North,-999,-999.0,-999.0,99,0.00,,,0.00,meteohub,2013-05-10 07:32:00,
2013-05-10 00:37:00,49.1,48.9,30.14,North,0,0.0,0.0,99,0.00,,,0.00,meteohub,2013-05-10 07:37:00,
2013-05-10 00:42:00,50.9,50.5,30.14,North,0,0.0,0.0,99,0.00,,,0.00,meteohub,2013-05-10 07:42:00,
2013-05-10 00:47:00,50.9,50.5,30.14,North,-999,-999.0,0.0,99,0.00,,,0.00,meteohub,2013-05-10 07:47:00,
2013-05-10 00:52:00,53.2,52.9,30.14,West,270,1.0,0.0,99,0.00,,,0.00,meteohub,2013-05-10 07:52:00,
2013-05-10 00:57:00,48.7,48.6,30.14,North,0,1.0,1.0,99,0.00,,,0.00,meteohub,2013-05-10 07:57:00,
2013-05-10 01:02:00,49.6,49.5,30.14,North,0,0.0,1.0,99,0.00,,,0.00,meteohub,2013-05-10 08:02:00,
2013-05-10 01:07:00,49.6,49.5,30.14,North,0,0.0,1.0,99,0.00,,,0.00,meteohub,2013-05-10 08:07:00,
2013-05-10 01:12:00,49.5,49.3,30.14,North,0,1.0,1.0,99,0.00,,,0.00,meteohub,2013-05-10 08:12:00,
2013-05-10 01:17:00,49.6,49.5,30.14,North,0,0.0,1.0,99,0.00,,,0.00,meteohub,2013-05-10 08:17:00,
2013-05-10 01:22:00,49.5,49.3,30.14,North,0,0.0,1.0,99,0.00,,,0.00,meteohub,2013-05-10 08:22:00,
2013-05-10 01:27:00,48.0,47.8,30.14,North,0,0.0,1.0,99,0.00,,,0.00,meteohub,2013-05-10 08:27:00,
2013-05-10 01:32:00,51.1,50.7,30.14,North,0,0.0,1.0,99,0.00,,,0.00,meteohub,2013-05-10 08:32:00,
2013-05-10 01:37:00,50.7,50.4,30.14,North,-999,-999.0,1.0,99,0.00,,,0.00,meteohub,2013-05-10 08:37:00,
2013-05-10 01:43:00,50.4,50.0,30.15,North,-999,-999.0,0.0,99,0.00,,,0.00,meteohub,2013-05-10 08:43:00,
2013-05-10 01:48:00,50.0,49.6,30.15,North,-999,-999.0,-999.0,99,0.00,,,0.00,meteohub,2013-05-10 08:48:00,
2013-05-10 01:53:00,50.0,49.6,30.15,North,-999,-999.0,-999.0,99,0.00,,,0.00,meteohub,2013-05-10 08:53:00,
2013-05-10 01:58:00,49.8,49.5,30.14,North,-999,-999.0,-999.0,99,0.00,,,0.00,meteohub,2013-05-10 08:58:00,
2013-05-10 02:03:00,49.6,49.5,30.15,North,-999,-999.0,-999.0,99,0.00,,,0.00,meteohub,2013-05-10 09:03:00,
2013-05-10 02:08:00,49.5,49.3,30.15,North,-999,-999.0,-999.0,99,0.00,,,0.00,meteohub,2013-05-10 09:08:00,
2013-05-10 02:13:00,49.3,49.1,30.15,North,-999,-999.0,-999.0,99,0.00,,,0.00,meteohub,2013-05-10 09:13:00,
2013-05-10 02:18:00,49.1,48.9,30.15,North,-999,-999.0,-999.0,99,0.00,,,0.00,meteohub,2013-05-10 09:18:00,
2013-05-10 02:23:00,49.1,48.9,30.15,North,-999,-999.0,-999.0,99,0.00,,,0.00,meteohub,2013-05-10 09:23:00,
2013-05-10 02:28:00,49.1,48.9,30.15,North,-999,-999.0,-999.0,99,0.00,,,0.00,meteohub,2013-05-10 09:28:00,
2013-05-10 02:33:00,48.9,48.7,30.15,North,-999,-999.0,-999.0,99,0.00,,,0.00,meteohub,2013-05-10 09:33:00,
2013-05-10 02:38:00,48.9,48.7,30.15,North,-999,-999.0,-999.0,99,0.00,,,0.00,meteohub,2013-05-10 09:38:00,
2013-05-10 02:43:00,48.9,48.7,30.15,North,-999,-999.0,-999.0,99,0.00,,,0.00,meteohub,2013-05-10 09:43:00,
2013-05-10 02:48:00,48.9,48.7,30.16,North,-999,-999.0,-999.0,99,0.00,,,0.00,meteohub,2013-05-10 09:48:00,
2013-05-10 02:53:00,48.7,48.6,30.16,North,-999,-999.0,-999.0,99,0.00,,,0.00,meteohub,2013-05-10 09:53:00,
2013-05-10 02:58:00,48.6,48.4,30.15,North,-999,-999.0,-999.0,99,0.00,,,0.00,meteohub,2013-05-10 09:58:00,
2013-05-10 03:03:00,44.1,43.9,30.15,North,-999,-999.0,-999.0,99,0.00,,,0.00,meteohub,2013-05-10 10:03:00,
2013-05-10 03:08:00,48.7,48.6,30.15,North,-999,-999.0,-999.0,99,0.00,,,0.00,meteohub,2013-05-10 10:08:00,
2013-05-10 03:13:00,46.4,46.2,30.16,North,0,0.0,-999.0,99,0.00,,,0.00,meteohub,2013-05-10 10:13:00,
2013-05-10 03:18:00,46.6,46.4,30.15,North,0,0.0,-999.0,99,0.00,,,0.00,meteohub,2013-05-10 10:18:00,
2013-05-10 03:23:00,46.4,46.2,30.15,North,0,0.0,0.0,99,0.00,,,0.00,meteohub,2013-05-10 10:23:00,
2013-05-10 03:28:00,46.4,46.2,30.15,North,0,0.0,0.0,99,0.00,,,0.00,meteohub,2013-05-10 10:28:00,
2013-05-10 03:33:00,46.4,46.2,30.16,North,0,0.0,0.0,99,0.00,,,0.00,meteohub,2013-05-10 10:33:00,
2013-05-10 03:38:00,46.6,46.4,30.16,North,0,0.0,0.0,99,0.00,,,0.00,meteohub,2013-05-10 10:38:00,
2013-05-10 03:43:00,46.2,46.0,30.16,North,0,0.0,0.0,99,0.00,,,0.00,meteohub,2013-05-10 10:43:00,
2013-05-10 03:48:00,46.0,45.9,30.16,North,0,0.0,0.0,99,0.00,,,0.00,meteohub,2013-05-10 10:48:00,
2013-05-10 03:53:00,45.9,45.7,30.16,North,0,0.0,0.0,99,0.00,,,0.00,meteohub,2013-05-10 10:53:00,
2013-05-10 03:58:00,45.5,45.3,30.16,North,0,0.0,0.0,99,0.00,,,0.00,meteohub,2013-05-10 10:58:00,
2013-05-10 04:03:00,45.5,45.3,30.16,North,0,0.0,0.0,99,0.00,,,0.00,meteohub,2013-05-10 11:03:00,
2013-05-10 04:08:00,45.1,45.0,30.16,North,0,0.0,0.0,99,0.00,,,0.00,meteohub,2013-05-10 11:08:00,
2013-05-10 04:13:00,45.0,44.8,30.16,North,0,0.0,0.0,99,0.00,,,0.00,meteohub,2013-05-10 11:13:00,
2013-05-10 04:18:00,44.8,44.6,30.16,North,0,0.0,0.0,99,0.00,,,0.00,meteohub,2013-05-10 11:18:00,
2013-05-10 04:24:00,44.6,44.4,30.16,North,0,0.0,0.0,99,0.00,,,0.00,meteohub,2013-05-10 11:24:00,
2013-05-10 04:29:00,44.6,44.4,30.16,North,0,0.0,0.0,99,0.00,,,0.00,meteohub,2013-05-10 11:29:00,
2013-05-10 04:34:00,44.6,44.4,30.16,North,0,0.0,0.0,99,0.00,,,0.00,meteohub,2013-05-10 11:34:00,
2013-05-10 04:39:00,44.4,44.2,30.16,North,0,0.0,0.0,99,0.00,,,0.00,meteohub,2013-05-10 11:39:00,
2013-05-10 04:44:00,44.2,44.1,30.16,North,0,0.0,0.0,99,0.00,,,0.00,meteohub,2013-05-10 11:44:00,
2013-05-10 04:49:00,44.2,44.1,30.15,North,0,0.0,0.0,99,0.00,,,0.00,meteohub,2013-05-10 11:49:00,
2013-05-10 04:54:00,44.1,43.9,30.15,North,0,0.0,0.0,99,0.00,,,0.00,meteohub,2013-05-10 11:54:00,
2013-05-10 04:59:00,44.1,43.9,30.15,North,0,0.0,0.0,99,0.00,,,0.00,meteohub,2013-05-10 11:59:00,
2013-05-10 05:04:00,44.1,43.9,30.15,North,0,0.0,0.0,99,0.00,,,0.00,meteohub,2013-05-10 12:04:00,
2013-05-10 05:09:00,43.7,43.5,30.15,North,0,0.0,0.0,99,0.00,,,0.00,meteohub,2013-05-10 12:09:00,
2013-05-10 05:14:00,43.5,43.3,30.15,North,0,0.0,0.0,99,0.00,,,0.00,meteohub,2013-05-10 12:14:00,
2013-05-10 05:19:00,43.5,43.3,30.15,North,0,0.0,0.0,99,0.00,,,0.00,meteohub,2013-05-10 12:19:00,
2013-05-10 05:24:00,43.5,43.3,30.16,North,0,0.0,0.0,99,0.00,,,0.00,meteohub,2013-05-10 12:24:00,
2013-05-10 05:29:00,43.3,43.2,30.15,North,0,0.0,0.0,99,0.00,,,0.00,meteohub,2013-05-10 12:29:00,
2013-05-10 05:34:00,43.2,43.0,30.15,North,0,0.0,0.0,99,0.00,,,0.00,meteohub,2013-05-10 12:34:00,
2013-05-10 05:39:00,43.2,43.0,30.15,North,0,0.0,0.0,99,0.00,,,0.00,meteohub,2013-05-10 12:39:00,
2013-05-10 05:44:00,43.3,43.2,30.14,North,0,0.0,0.0,99,0.00,,,0.00,meteohub,2013-05-10 12:44:00,
2013-05-10 05:50:00,43.3,43.2,30.14,North,0,0.0,0.0,99,0.00,,,0.00,meteohub,2013-05-10 12:50:00,
2013-05-10 05:55:00,43.3,43.2,30.15,North,0,0.0,0.0,99,0.00,,,0.00,meteohub,2013-05-10 12:55:00,
2013-05-10 06:00:00,43.5,43.3,30.15,North,0,0.0,0.0,99,0.00,,,0.00,meteohub,2013-05-10 13:00:00,
2013-05-10 06:05:00,43.5,43.3,30.15,North,0,0.0,0.0,99,0.00,,,0.00,meteohub,2013-05-10 13:05:00,
2013-05-10 06:10:00,43.5,43.3,30.15,North,0,0.0,0.0,99,0.00,,,0.00,meteohub,2013-05-10 13:10:00,
2013-05-10 06:15:00,43.9,43.7,30.16,North,0,0.0,0.0,99,0.00,,,0.00,meteohub,2013-05-10 13:15:00,
2013-05-10 06:20:00,44.2,44.1,30.16,North,0,0.0,0.0,99,0.00,,,0.00,meteohub,2013-05-10 13:20:00,
2013-05-10 06:25:00,44.6,44.4,30.16,North,0,0.0,0.0,99,0.00,,,0.00,meteohub,2013-05-10 13:25:00,
2013-05-10 06:30:00,44.6,44.4,30.16,North,0,0.0,0.0,99,0.00,,,0.00,meteohub,2013-05-10 13:30:00,
2013-05-10 06:35:00,45.0,44.8,30.16,North,0,0.0,0.0,99,0.00,,,0.00,meteohub,2013-05-10 13:35:00,
2013-05-10 06:40:00,45.0,44.8,30.16,North,0,0.0,0.0,99,0.00,,,0.00,meteohub,2013-05-10 13:40:00,
2013-05-10 06:45:00,45.3,45.1,30.17,North,0,0.0,0.0,99,0.00,,,0.00,meteohub,2013-05-10 13:45:00,
2013-05-10 06:50:00,45.3,45.1,30.16,North,0,0.0,0.0,99,0.00,,,0.00,meteohub,2013-05-10 13:50:00,
2013-05-10 06:55:00,45.7,45.5,30.16,North,0,0.0,0.0,99,0.00,,,0.00,meteohub,2013-05-10 13:55:00,
2013-05-10 07:00:00,46.4,46.2,30.17,North,0,0.0,0.0,99,0.00,,,0.00,meteohub,2013-05-10 14:00:00,
2013-05-10 07:05:00,39.6,39.4,30.17,ENE,68,0.0,0.0,99,0.00,,,0.00,meteohub,2013-05-10 14:05:00,
2013-05-10 07:10:00,43.7,43.5,30.17,North,0,1.0,2.0,99,0.00,,,0.00,meteohub,2013-05-10 14:10:00,
2013-05-10 07:15:00,41.2,41.0,30.17,ENE,68,0.0,2.0,99,0.00,,,0.00,meteohub,2013-05-10 14:15:00,
2013-05-10 07:20:00,43.7,43.5,30.17,SSW,203,0.0,2.0,99,0.00,,,0.00,meteohub,2013-05-10 14:20:00,
2013-05-10 07:25:00,44.8,44.6,30.17,SSW,203,0.0,1.0,99,0.00,,,0.00,meteohub,2013-05-10 14:25:00,
2013-05-10 07:31:00,45.3,45.1,30.17,SSW,203,0.0,1.0,99,0.00,,,0.00,meteohub,2013-05-10 14:31:00,
2013-05-10 07:36:00,46.6,46.4,30.17,SSW,203,0.0,0.0,99,0.00,,,0.00,meteohub,2013-05-10 14:36:00,
2013-05-10 07:41:00,47.5,47.3,30.17,SSW,203,0.0,0.0,99,0.00,,,0.00,meteohub,2013-05-10 14:41:00,
2013-05-10 07:46:00,49.3,49.1,30.17,SSW,203,0.0,0.0,99,0.00,,,0.00,meteohub,2013-05-10 14:46:00,
2013-05-10 07:51:00,44.4,44.2,30.17,ESE,113,1.0,0.0,99,0.00,,,0.00,meteohub,2013-05-10 14:51:00,
2013-05-10 07:56:00,55.2,54.9,30.17,West,270,0.0,2.0,99,0.00,,,0.00,meteohub,2013-05-10 14:56:00,
2013-05-10 08:01:00,56.3,55.9,30.17,West,270,0.0,2.0,99,0.00,,,0.00,meteohub,2013-05-10 15:01:00,
2013-05-10 08:06:00,57.4,57.0,30.17,West,270,1.0,1.0,99,0.00,,,0.00,meteohub,2013-05-10 15:06:00,
2013-05-10 08:11:00,62.4,62.1,30.17,West,270,2.0,2.0,99,0.00,,,0.00,meteohub,2013-05-10 15:11:00,
2013-05-10 08:16:00,60.8,59.7,30.17,North,0,1.0,2.0,96,0.00,,,0.00,meteohub,2013-05-10 15:16:00,
2013-05-10 08:21:00,60.3,58.3,30.17,WSW,248,1.0,2.0,93,0.00,,,0.00,meteohub,2013-05-10 15:21:00,
2013-05-10 08:26:00,63.0,58.5,30.17,North,0,0.0,2.0,85,0.00,,,0.00,meteohub,2013-05-10 15:26:00,
2013-05-10 08:31:00,70.3,64.9,30.17,SW,225,0.0,2.0,83,0.00,,,0.00,meteohub,2013-05-10 15:31:00,
2013-05-10 08:36:00,63.7,57.4,30.17,ESE,113,0.0,2.0,80,0.00,,,0.00,meteohub,2013-05-10 15:36:00,
2013-05-10 08:41:00,66.6,59.5,30.17,West,270,0.0,1.0,78,0.00,,,0.00,meteohub,2013-05-10 15:41:00,
2013-05-10 08:46:00,66.0,59.4,30.17,West,270,0.0,1.0,79,0.00,,,0.00,meteohub,2013-05-10 15:46:00,
2013-05-10 08:51:00,77.2,69.8,30.17,WSW,248,2.0,2.0,78,0.00,,,0.00,meteohub,2013-05-10 15:51:00,
2013-05-10 08:56:00,67.6,60.3,30.17,ESE,113,2.0,2.0,77,0.00,,,0.00,meteohub,2013-05-10 15:56:00,
2013-05-10 09:01:00,62.1,54.7,30.17,ESE,113,2.0,2.0,77,0.00,,,0.00,meteohub,2013-05-10 16:01:00,
2013-05-10 09:06:00,62.6,55.2,30.17,West,270,0.0,3.0,77,0.00,,,0.00,meteohub,2013-05-10 16:06:00,
2013-05-10 09:11:00,65.7,57.2,30.17,NNE,23,0.0,3.0,74,0.00,,,0.00,meteohub,2013-05-10 16:11:00,
2013-05-10 09:16:00,68.5,60.6,30.17,West,270,1.0,3.0,76,0.00,,,0.00,meteohub,2013-05-10 16:16:00,
2013-05-10 09:22:00,68.9,57.9,30.17,North,-999,-999.0,3.0,68,0.00,,,0.00,meteohub,2013-05-10 16:22:00,
2013-05-10 09:27:00,71.1,60.8,30.17,WSW,248,0.0,1.0,70,0.00,,,0.00,meteohub,2013-05-10 16:27:00,
2013-05-10 09:32:00,69.8,58.8,30.16,ESE,113,0.0,1.0,68,0.00,,,0.00,meteohub,2013-05-10 16:32:00,
2013-05-10 09:37:00,71.6,60.1,30.17,NNE,23,2.0,2.0,67,0.00,,,0.00,meteohub,2013-05-10 16:37:00,
2013-05-10 09:42:00,70.3,58.1,30.16,SSW,203,1.0,2.0,65,0.00,,,0.00,meteohub,2013-05-10 16:42:00,
2013-05-10 09:48:00,70.7,58.8,30.17,ESE,113,1.0,2.0,66,0.00,,,0.00,meteohub,2013-05-10 16:48:00,
2013-05-10 09:53:00,70.3,58.1,30.17,North,0,2.0,2.0,65,0.00,,,0.00,meteohub,2013-05-10 16:53:00,
2013-05-10 09:58:00,71.6,60.1,30.17,North,0,0.0,2.0,67,0.00,,,0.00,meteohub,2013-05-10 16:58:00,
2013-05-10 10:03:00,73.4,60.4,30.16,West,270,2.0,2.0,64,0.00,,,0.00,meteohub,2013-05-10 17:03:00,
2013-05-10 10:08:00,72.7,59.7,30.17,West,270,1.0,2.0,64,0.00,,,0.00,meteohub,2013-05-10 17:08:00,
2013-05-10 10:13:00,72.1,58.8,30.16,West,270,1.0,2.0,63,0.00,,,0.00,meteohub,2013-05-10 17:13:00,
2013-05-10 10:18:00,84.6,70.2,30.17,NNE,23,2.0,2.0,62,0.00,,,0.00,meteohub,2013-05-10 17:18:00,
2013-05-10 10:23:00,72.7,58.8,30.17,West,270,1.0,2.0,62,0.00,,,0.00,meteohub,2013-05-10 17:23:00,
2013-05-10 10:28:00,72.7,59.7,30.16,West,270,1.0,2.0,64,0.00,,,0.00,meteohub,2013-05-10 17:28:00,
2013-05-10 10:33:00,73.0,59.7,30.16,West,270,1.0,2.0,63,0.00,,,0.00,meteohub,2013-05-10 17:33:00,
2013-05-10 10:38:00,73.4,58.6,30.17,West,270,2.0,2.0,60,0.00,,,0.00,meteohub,2013-05-10 17:38:00,
2013-05-10 10:43:00,72.7,58.5,30.17,SSW,203,2.0,2.0,61,0.00,,,0.00,meteohub,2013-05-10 17:43:00,
2013-05-10 10:48:00,73.9,59.7,30.16,SSW,203,0.0,2.0,61,0.00,,,0.00,meteohub,2013-05-10 17:48:00,
2013-05-10 10:53:00,75.2,59.0,30.16,North,0,1.0,2.0,57,0.00,,,0.00,meteohub,2013-05-10 17:53:00,
2013-05-10 10:58:00,76.5,60.1,30.16,West,270,2.0,2.0,57,0.00,,,0.00,meteohub,2013-05-10 17:58:00,
2013-05-10 11:03:00,77.0,61.2,30.16,North,0,1.0,2.0,58,0.00,,,0.00,meteohub,2013-05-10 18:03:00,
2013-05-10 11:08:00,77.9,60.4,30.16,West,270,1.0,2.0,55,0.00,,,0.00,meteohub,2013-05-10 18:08:00,
2013-05-10 11:13:00,79.5,60.8,30.16,ESE,113,2.0,2.0,53,0.00,,,0.00,meteohub,2013-05-10 18:13:00,
2013-05-10 11:18:00,79.0,60.4,30.16,NNE,23,2.0,2.0,53,0.00,,,0.00,meteohub,2013-05-10 18:18:00,
2013-05-10 11:23:00,79.2,61.2,30.16,West,270,0.0,2.0,54,0.00,,,0.00,meteohub,2013-05-10 18:23:00,
2013-05-10 11:28:00,79.7,60.4,30.16,South,180,2.0,3.0,52,0.00,,,0.00,meteohub,2013-05-10 18:28:00,
2013-05-10 11:33:00,82.2,62.2,30.16,SSW,203,2.0,3.0,51,0.00,,,0.00,meteohub,2013-05-10 18:33:00,
2013-05-10 11:38:00,81.7,62.4,30.16,North,0,2.0,3.0,52,0.00,,,0.00,meteohub,2013-05-10 18:38:00,
2013-05-10 11:43:00,81.5,61.7,30.16,North,0,2.0,3.0,51,0.00,,,0.00,meteohub,2013-05-10 18:43:00,
2013-05-10 11:48:00,84.0,62.8,30.16,WSW,248,2.0,3.0,49,0.00,,,0.00,meteohub,2013-05-10 18:48:00,
2013-05-10 11:53:00,82.6,62.1,30.15,West,270,2.0,3.0,50,0.00,,,0.00,meteohub,2013-05-10 18:53:00,
2013-05-10 11:59:00,83.1,62.1,30.16,WSW,248,1.0,3.0,49,0.00,,,0.00,meteohub,2013-05-10 18:59:00,
2013-05-10 12:04:00,83.1,61.3,30.16,SSW,203,2.0,3.0,48,0.00,,,0.00,meteohub,2013-05-10 19:04:00,
2013-05-10 12:09:00,82.8,60.4,30.16,WNW,293,2.0,3.0,47,0.00,,,0.00,meteohub,2013-05-10 19:09:00,
2013-05-10 12:14:00,84.7,63.0,30.16,NNE,23,1.0,2.0,48,0.00,,,0.00,meteohub,2013-05-10 19:14:00,
2013-05-10 12:19:00,85.6,61.2,30.16,SSW,203,2.0,2.0,44,0.00,,,0.00,meteohub,2013-05-10 19:19:00,
2013-05-10 12:24:00,83.8,62.1,30.15,North,0,0.0,2.0,48,0.00,,,0.00,meteohub,2013-05-10 19:24:00,
2013-05-10 12:29:00,84.0,61.0,30.15,SE,135,2.0,2.0,46,0.00,,,0.00,meteohub,2013-05-10 19:29:00,
2013-05-10 12:34:00,85.6,61.9,30.14,West,270,1.0,2.0,45,0.00,,,0.00,meteohub,2013-05-10 19:34:00,
2013-05-10 12:39:00,86.2,62.4,30.14,WSW,248,2.0,2.0,45,0.00,,,0.00,meteohub,2013-05-10 19:39:00,
2013-05-10 12:44:00,86.9,63.0,30.14,SSW,203,1.0,3.0,45,0.00,,,0.00,meteohub,2013-05-10 19:44:00,
2013-05-10 12:49:00,85.1,61.3,30.14,West,270,1.0,3.0,45,0.00,,,0.00,meteohub,2013-05-10 19:49:00,
2013-05-10 12:54:00,85.5,61.7,30.14,West,270,1.0,3.0,45,0.00,,,0.00,meteohub,2013-05-10 19:54:00,
2013-05-10 12:59:00,86.9,63.0,30.14,West,270,2.0,2.0,45,0.00,,,0.00,meteohub,2013-05-10 19:59:00,
2013-05-10 13:04:00,86.0,60.3,30.14,West,270,2.0,2.0,42,0.00,,,0.00,meteohub,2013-05-10 20:04:00,
2013-05-10 13:09:00,86.7,62.8,30.14,West,270,2.0,2.0,45,0.00,,,0.00,meteohub,2013-05-10 20:09:00,
2013-05-10 13:14:00,86.2,61.7,30.14,West,270,2.0,3.0,44,0.00,,,0.00,meteohub,2013-05-10 20:14:00,
2013-05-10 13:19:00,89.1,64.2,30.14,ESE,113,4.0,4.0,44,0.00,,,0.00,meteohub,2013-05-10 20:19:00,
2013-05-10 13:24:00,85.8,61.3,30.14,SW,225,2.0,4.0,44,0.00,,,0.00,meteohub,2013-05-10 20:24:00,
2013-05-10 13:29:00,93.7,67.8,30.14,SSE,158,2.0,4.0,43,0.00,,,0.00,meteohub,2013-05-10 20:29:00,
2013-05-10 13:34:00,90.3,64.0,30.14,North,0,2.0,4.0,42,0.00,,,0.00,meteohub,2013-05-10 20:34:00,
2013-05-10 13:39:00,88.9,63.5,30.13,NNE,23,1.0,4.0,43,0.00,,,0.00,meteohub,2013-05-10 20:39:00,
2013-05-10 13:44:00,87.1,61.9,30.13,North,0,2.0,4.0,43,0.00,,,0.00,meteohub,2013-05-10 20:44:00,
2013-05-10 13:49:00,92.1,64.9,30.13,WSW,248,2.0,2.0,41,0.00,,,0.00,meteohub,2013-05-10 20:49:00,
2013-05-10 13:54:00,87.8,61.9,30.13,West,270,2.0,2.0,42,0.00,,,0.00,meteohub,2013-05-10 20:54:00,
2013-05-10 13:59:00,88.7,62.6,30.13,NNE,23,2.0,3.0,42,0.00,,,0.00,meteohub,2013-05-10 20:59:00,
2013-05-10 14:04:00,87.3,62.1,30.12,SSW,203,2.0,3.0,43,0.00,,,0.00,meteohub,2013-05-10 21:04:00,
2013-05-10 14:09:00,89.1,63.7,30.12,SSW,203,0.0,3.0,43,0.00,,,0.00,meteohub,2013-05-10 21:09:00,
2013-05-10 14:14:00,89.4,63.3,30.12,North,0,2.0,2.0,42,0.00,,,0.00,meteohub,2013-05-10 21:14:00,
2013-05-10 14:19:00,90.3,64.0,30.12,WSW,248,2.0,2.0,42,0.00,,,0.00,meteohub,2013-05-10 21:19:00,
2013-05-10 14:24:00,91.0,64.8,30.12,NNE,23,2.0,2.0,42,0.00,,,0.00,meteohub,2013-05-10 21:24:00,
2013-05-10 14:29:00,106.9,79.0,30.12,North,0,2.0,2.0,42,0.00,,,0.00,meteohub,2013-05-10 21:29:00,
2013-05-10 14:35:00,86.7,61.5,30.12,North,0,1.0,2.0,43,0.00,,,0.00,meteohub,2013-05-10 21:35:00,
2013-05-10 14:40:00,87.4,62.2,30.12,North,0,2.0,2.0,43,0.00,,,0.00,meteohub,2013-05-10 21:40:00,
2013-05-10 14:45:00,85.5,60.4,30.12,North,0,2.0,2.0,43,0.00,,,0.00,meteohub,2013-05-10 21:45:00,
2013-05-10 14:50:00,87.4,62.8,30.11,WSW,248,2.0,2.0,44,0.00,,,0.00,meteohub,2013-05-10 21:50:00,
2013-05-10 14:55:00,85.3,61.0,30.11,North,0,2.0,3.0,44,0.00,,,0.00,meteohub,2013-05-10 21:55:00,
2013-05-10 14:58:00,86.0,61.5,30.11,SSW,203,3.0,3.0,44,0.00,,,0.00,meteohub,2013-05-10 21:58:00,
2013-05-10 14:59:00,86.5,62.1,30.12,SSW,203,3.0,3.0,44,0.00,,,0.00,meteohub,2013-05-10 21:59:00,
2013-05-10 15:04:00,86.5,62.6,30.11,North,0,3.0,3.0,45,0.00,,,0.00,meteohub,2013-05-10 22:04:00,
2013-05-10 15:09:00,84.9,61.2,30.12,North,0,2.0,3.0,45,0.00,,,0.00,meteohub,2013-05-10 22:09:00,
2013-05-10 15:14:00,84.9,61.9,30.11,SSW,203,1.0,3.0,46,0.00,,,0.00,meteohub,2013-05-10 22:14:00,
2013-05-10 15:19:00,86.2,62.4,30.11,North,0,1.0,3.0,45,0.00,,,0.00,meteohub,2013-05-10 22:19:00,
2013-05-10 15:24:00,86.4,61.2,30.11,North,0,2.0,2.0,43,0.00,,,0.00,meteohub,2013-05-10 22:24:00,
2013-05-10 15:29:00,87.6,62.4,30.11,WSW,248,2.0,5.0,43,0.00,,,0.00,meteohub,2013-05-10 22:29:00,
2013-05-10 15:34:00,85.5,61.0,30.10,ESE,113,2.0,5.0,44,0.00,,,0.00,meteohub,2013-05-10 22:34:00,
2013-05-10 15:39:00,84.6,60.3,30.10,West,270,0.0,5.0,44,0.00,,,0.00,meteohub,2013-05-10 22:39:00,
2013-05-10 15:44:00,85.6,60.6,30.10,North,0,2.0,2.0,43,0.00,,,0.00,meteohub,2013-05-10 22:44:00,
2013-05-10 15:49:00,88.0,62.1,30.10,ESE,113,1.0,2.0,42,0.00,,,0.00,meteohub,2013-05-10 22:49:00,
2013-05-10 15:54:00,87.3,62.1,30.10,SSW,203,2.0,2.0,43,0.00,,,0.00,meteohub,2013-05-10 22:54:00,
2013-05-10 15:59:00,85.6,59.9,30.10,WSW,248,1.0,2.0,42,0.00,,,0.00,meteohub,2013-05-10 22:59:00,
2013-05-10 16:04:00,84.0,59.2,30.10,SE,135,2.0,2.0,43,0.00,,,0.00,meteohub,2013-05-10 23:04:00,
2013-05-10 16:37:00,81.7,59.5,30.09,North,0,2.0,2.0,47,0.00,,,0.00,meteohub,2013-05-10 23:37:00,
2013-05-10 16:42:00,80.6,59.2,30.09,North,0,1.0,2.0,48,0.00,,,0.00,meteohub,2013-05-10 23:42:00,
2013-05-10 16:47:00,81.0,58.3,30.09,North,0,1.0,2.0,46,0.00,,,0.00,meteohub,2013-05-10 23:47:00,
2013-05-10 16:52:00,80.6,57.9,30.09,North,0,2.0,2.0,46,0.00,,,0.00,meteohub,2013-05-10 23:52:00,
2013-05-10 16:57:00,80.6,57.4,30.08,North,0,2.0,2.0,45,0.00,,,0.00,meteohub,2013-05-10 23:57:00,
2013-05-10 17:02:00,80.8,59.2,30.09,WSW,248,0.0,2.0,48,0.00,,,0.00,meteohub,2013-05-11 00:02:00,
2013-05-10 17:07:00,83.3,59.7,30.09,ESE,113,0.0,2.0,45,0.00,,,0.00,meteohub,2013-05-11 00:07:00,
2013-05-10 17:12:00,81.3,57.9,30.09,West,270,1.0,2.0,45,0.00,,,0.00,meteohub,2013-05-11 00:12:00,
2013-05-10 17:17:00,80.8,58.6,30.09,West,270,0.0,2.0,47,0.00,,,0.00,meteohub,2013-05-11 00:17:00,
2013-05-10 17:22:00,80.2,58.1,30.09,WSW,248,0.0,2.0,47,0.00,,,0.00,meteohub,2013-05-11 00:22:00,
2013-05-10 17:27:00,82.2,59.4,30.09,ESE,113,1.0,2.0,46,0.00,,,0.00,meteohub,2013-05-11 00:27:00,
2013-05-10 17:32:00,80.6,57.4,30.09,North,0,1.0,1.0,45,0.00,,,0.00,meteohub,2013-05-11 00:32:00,
2013-05-10 17:37:00,80.1,57.4,30.08,North,0,1.0,1.0,46,0.00,,,0.00,meteohub,2013-05-11 00:37:00,
2013-05-10 17:42:00,79.2,57.2,30.09,SSW,203,1.0,1.0,47,0.00,,,0.00,meteohub,2013-05-11 00:42:00,
2013-05-10 17:47:00,78.8,56.8,30.09,West,270,1.0,1.0,47,0.00,,,0.00,meteohub,2013-05-11 00:47:00,
2013-05-10 17:52:00,78.1,56.3,30.09,NNE,23,0.0,2.0,47,0.00,,,0.00,meteohub,2013-05-11 00:52:00,
2013-05-10 17:57:00,77.5,56.3,30.08,West,270,1.0,2.0,48,0.00,,,0.00,meteohub,2013-05-11 00:57:00,
2013-05-10 18:02:00,76.8,56.3,30.09,North,0,1.0,2.0,49,0.00,,,0.00,meteohub,2013-05-11 01:02:00,
2013-05-10 18:07:00,76.5,56.5,30.09,North,0,1.0,2.0,50,0.00,,,0.00,meteohub,2013-05-11 01:07:00,
2013-05-10 18:12:00,75.9,55.4,30.09,North,0,1.0,1.0,49,0.00,,,0.00,meteohub,2013-05-11 01:12:00,
2013-05-10 18:17:00,75.4,54.9,30.09,North,-999,-999.0,1.0,49,0.00,,,0.00,meteohub,2013-05-11 01:17:00,
2013-05-10 18:22:00,75.0,55.6,30.09,ESE,113,0.0,1.0,51,0.00,,,0.00,meteohub,2013-05-11 01:22:00,
2013-05-10 18:27:00,74.5,55.2,30.08,West,270,0.0,1.0,51,0.00,,,0.00,meteohub,2013-05-11 01:27:00,
2013-05-10 18:32:00,73.9,55.2,30.08,West,270,0.0,1.0,52,0.00,,,0.00,meteohub,2013-05-11 01:32:00,
2013-05-10 18:37:00,73.6,55.4,30.08,West,270,0.0,1.0,53,0.00,,,0.00,meteohub,2013-05-11 01:37:00,
2013-05-10 18:42:00,73.2,55.0,30.08,West,270,0.0,0.0,53,0.00,,,0.00,meteohub,2013-05-11 01:42:00,
2013-05-10 18:47:00,72.9,55.2,30.08,West,270,0.0,0.0,54,0.00,,,0.00,meteohub,2013-05-11 01:47:00,
2013-05-10 18:52:00,72.7,55.6,30.08,West,270,0.0,0.0,55,0.00,,,0.00,meteohub,2013-05-11 01:52:00,
2013-05-10 18:57:00,72.3,56.3,30.08,West,270,0.0,0.0,57,0.00,,,0.00,meteohub,2013-05-11 01:57:00,
2013-05-10 19:02:00,72.1,56.1,30.08,West,270,0.0,0.0,57,0.00,,,0.00,meteohub,2013-05-11 02:02:00,
2013-05-10 19:07:00,71.8,56.1,30.08,West,270,0.0,0.0,58,0.00,,,0.00,meteohub,2013-05-11 02:07:00,
2013-05-10 19:12:00,71.4,55.9,30.08,West,270,0.0,0.0,58,0.00,,,0.00,meteohub,2013-05-11 02:12:00,
2013-05-10 19:17:00,71.4,56.8,30.08,WSW,248,0.0,0.0,60,0.00,,,0.00,meteohub,2013-05-11 02:17:00,
2013-05-10 19:22:00,70.5,56.5,30.08,WSW,248,0.0,1.0,61,0.00,,,0.00,meteohub,2013-05-11 02:22:00,
2013-05-10 19:27:00,70.7,57.0,30.08,North,-999,-999.0,1.0,62,0.00,,,0.00,meteohub,2013-05-11 02:27:00,
2013-05-10 19:32:00,70.2,57.0,30.08,North,-999,-999.0,1.0,63,0.00,,,0.00,meteohub,2013-05-11 02:32:00,
2013-05-10 19:37:00,70.0,57.2,30.08,North,-999,-999.0,-999.0,64,0.00,,,0.00,meteohub,2013-05-11 02:37:00,
2013-05-10 19:42:00,69.6,57.4,30.08,North,-999,-999.0,-999.0,65,0.00,,,0.00,meteohub,2013-05-11 02:42:00,
2013-05-10 19:47:00,69.1,57.2,30.09,North,-999,-999.0,-999.0,66,0.00,,,0.00,meteohub,2013-05-11 02:47:00,
2013-05-10 19:52:00,68.4,57.0,30.09,SSW,203,0.0,-999.0,67,0.00,,,0.00,meteohub,2013-05-11 02:52:00,
2013-05-10 19:57:00,68.0,56.7,30.09,North,-999,-999.0,0.0,67,0.00,,,0.00,meteohub,2013-05-11 02:57:00,
2013-05-10 20:02:00,67.3,56.8,30.09,North,-999,-999.0,0.0,69,0.00,,,0.00,meteohub,2013-05-11 03:02:00,
2013-05-10 20:07:00,66.6,56.5,30.09,North,-999,-999.0,0.0,70,0.00,,,0.00,meteohub,2013-05-11 03:07:00,
2013-05-10 20:12:00,66.2,56.5,30.09,North,-999,-999.0,-999.0,71,0.00,,,0.00,meteohub,2013-05-11 03:12:00,
2013-05-10 20:17:00,65.7,55.9,30.09,North,-999,-999.0,-999.0,71,0.00,,,0.00,meteohub,2013-05-11 03:17:00,
2013-05-10 20:22:00,65.1,55.9,30.09,North,-999,-999.0,-999.0,72,0.00,,,0.00,meteohub,2013-05-11 03:22:00,
2013-05-10 20:27:00,64.8,55.6,30.09,North,-999,-999.0,-999.0,72,0.00,,,0.00,meteohub,2013-05-11 03:27:00,
2013-05-10 20:33:00,64.2,55.0,30.10,North,-999,-999.0,-999.0,72,0.00,,,0.00,meteohub,2013-05-11 03:33:00,
2013-05-10 20:38:00,63.9,55.0,30.10,North,-999,-999.0,-999.0,73,0.00,,,0.00,meteohub,2013-05-11 03:38:00,
2013-05-10 20:43:00,63.5,55.0,30.10,North,-999,-999.0,-999.0,74,0.00,,,0.00,meteohub,2013-05-11 03:43:00,
2013-05-10 20:48:00,63.0,54.9,30.10,North,-999,-999.0,-999.0,75,0.00,,,0.00,meteohub,2013-05-11 03:48:00,
2013-05-10 20:53:00,62.6,54.9,30.10,North,-999,-999.0,-999.0,76,0.00,,,0.00,meteohub,2013-05-11 03:53:00,
2013-05-10 20:58:00,62.4,55.0,30.10,North,-999,-999.0,-999.0,77,0.00,,,0.00,meteohub,2013-05-11 03:58:00,
2013-05-10 21:01:00,62.4,55.0,30.10,North,-999,-999.0,-999.0,77,0.00,,,0.00,meteohub,2013-05-11 04:01:00,
2013-05-10 21:06:00,62.2,54.5,30.11,North,-999,-999.0,-999.0,76,0.00,,,0.00,meteohub,2013-05-11 04:06:00,
2013-05-10 21:11:00,62.1,54.7,30.10,North,-999,-999.0,-999.0,77,0.00,,,0.00,meteohub,2013-05-11 04:11:00,
2013-05-10 21:16:00,61.7,54.5,30.10,North,-999,-999.0,-999.0,77,0.00,,,0.00,meteohub,2013-05-11 04:16:00,
2013-05-10 21:21:00,61.9,54.9,30.11,North,-999,-999.0,-999.0,78,0.00,,,0.00,meteohub,2013-05-11 04:21:00,
2013-05-10 21:26:00,61.7,55.0,30.11,North,-999,-999.0,-999.0,79,0.00,,,0.00,meteohub,2013-05-11 04:26:00,
2013-05-10 21:31:00,61.9,54.9,30.11,North,-999,-999.0,-999.0,78,0.00,,,0.00,meteohub,2013-05-11 04:31:00,
2013-05-10 21:36:00,61.7,54.9,30.11,North,-999,-999.0,-999.0,78,0.00,,,0.00,meteohub,2013-05-11 04:36:00,
2013-05-10 21:41:00,61.5,54.7,30.12,North,-999,-999.0,-999.0,78,0.00,,,0.00,meteohub,2013-05-11 04:41:00,
2013-05-10 21:46:00,61.2,54.7,30.11,North,-999,-999.0,-999.0,79,0.00,,,0.00,meteohub,2013-05-11 04:46:00,
2013-05-10 21:51:00,61.0,54.5,30.11,North,-999,-999.0,-999.0,79,0.00,,,0.00,meteohub,2013-05-11 04:51:00,
2013-05-10 21:56:00,60.8,54.7,30.11,North,-999,-999.0,-999.0,80,0.00,,,0.00,meteohub,2013-05-11 04:56:00,
2013-05-10 22:01:00,60.6,54.7,30.12,North,-999,-999.0,-999.0,81,0.00,,,0.00,meteohub,2013-05-11 05:01:00,
2013-05-10 22:06:00,60.4,54.5,30.11,North,-999,-999.0,-999.0,81,0.00,,,0.00,meteohub,2013-05-11 05:06:00,
2013-05-10 22:11:00,60.3,54.3,30.12,North,-999,-999.0,-999.0,81,0.00,,,0.00,meteohub,2013-05-11 05:11:00,
2013-05-10 22:16:00,60.1,54.0,30.11,North,-999,-999.0,-999.0,80,0.00,,,0.00,meteohub,2013-05-11 05:16:00,
2013-05-10 22:21:00,60.3,54.1,30.12,North,-999,-999.0,-999.0,80,0.00,,,0.00,meteohub,2013-05-11 05:21:00,
2013-05-10 22:26:00,60.3,54.1,30.12,North,-999,-999.0,-999.0,80,0.00,,,0.00,meteohub,2013-05-11 05:26:00,
2013-05-10 22:31:00,60.1,53.6,30.12,North,-999,-999.0,-999.0,79,0.00,,,0.00,meteohub,2013-05-11 05:31:00,
2013-05-10 22:36:00,59.9,53.4,30.12,North,-999,-999.0,-999.0,79,0.00,,,0.00,meteohub,2013-05-11 05:36:00,
2013-05-10 22:41:00,59.7,54.0,30.12,North,-999,-999.0,-999.0,81,0.00,,,0.00,meteohub,2013-05-11 05:41:00,
2013-05-10 22:46:00,59.7,54.0,30.12,North,-999,-999.0,-999.0,81,0.00,,,0.00,meteohub,2013-05-11 05:46:00,
2013-05-10 22:51:00,59.5,53.1,30.12,North,-999,-999.0,-999.0,79,0.00,,,0.00,meteohub,2013-05-11 05:51:00,
2013-05-10 22:56:00,59.2,52.7,30.12,North,-999,-999.0,-999.0,79,0.00,,,0.00,meteohub,2013-05-11 05:56:00,
2013-05-10 23:01:00,57.9,51.4,30.12,North,0,0.0,-999.0,79,0.00,,,0.00,meteohub,2013-05-11 06:01:00,
2013-05-10 23:06:00,57.9,51.4,30.12,North,0,0.0,0.0,79,0.00,,,0.00,meteohub,2013-05-11 06:06:00,
2013-05-10 23:11:00,57.7,51.3,30.12,North,0,0.0,0.0,79,0.00,,,0.00,meteohub,2013-05-11 06:11:00,
2013-05-10 23:16:00,57.6,51.1,30.13,North,0,0.0,0.0,79,0.00,,,0.00,meteohub,2013-05-11 06:16:00,
2013-05-10 23:21:00,57.2,50.4,30.12,North,0,0.0,0.0,78,0.00,,,0.00,meteohub,2013-05-11 06:21:00,
2013-05-10 23:26:00,57.0,50.5,30.12,North,0,0.0,0.0,79,0.00,,,0.00,meteohub,2013-05-11 06:26:00,
2013-05-10 23:31:00,56.8,50.4,30.13,North,0,0.0,0.0,79,0.00,,,0.00,meteohub,2013-05-11 06:31:00,
2013-05-10 23:36:00,56.5,50.4,30.13,North,0,0.0,0.0,80,0.00,,,0.00,meteohub,2013-05-11 06:36:00,
2013-05-10 23:41:00,56.3,50.2,30.13,North,0,0.0,0.0,80,0.00,,,0.00,meteohub,2013-05-11 06:41:00,
2013-05-10 23:46:00,56.1,49.6,30.13,North,0,0.0,0.0,79,0.00,,,0.00,meteohub,2013-05-11 06:46:00,
2013-05-10 23:51:00,55.9,49.8,30.13,North,0,0.0,0.0,80,0.00,,,0.00,meteohub,2013-05-11 06:51:00,
2013-05-10 23:56:00,55.9,49.8,30.13,North,0,0.0,0.0,80,0.00,,,0.00,meteohub,2013-05-11 06:56:00,